Location: Shepherdstown, WV
(39.4326°N, 77.8042°W)
Time: 06:30:08
(UTC-04:00)

Vanguard 1 - Pass Details

Date: 10 August 2021
Orbit: 652 x 3831 km, 34.3° (Epoch: 24 September)

Event Time Altitude Azimuth Distance (km) Brightness Sun altitude
Rises 09:40:08 0° 246° (WSW) 3,317 12.4 37.2°
Reaches altitude 10° 09:42:54 10° 238° (WSW) 2,195 11.6 37.8°
Maximum altitude 09:47:16 38° 170° (S) 989 10.8 38.6°
Drops below altitude 10° 09:51:29 10° 101° (E) 2,119 13.0 39.4°
Sets 09:54:06 0° 93° (E) 3,184 13.6 39.9°
